Regional Weather Roundup
Issued by NWS Northern Indiana

Home | Current Version | Previous Version | Text Only | Print | Product List | Glossary On
Versions: 1 2 3 4 5 6 7 8 9 10 11 12 13 14 15 16 17 18 19 20 21 22 23 24 25 26 27 28 29 30 31 32 33 34 35 36 37 38 39 40 41 42 43 44 45 46 47 48 49 50
043
ASUS43 KIWX 261410
RWRIWX

KIWX WEATHER ROUNDUP
NATIONAL WEATHER SERVICE NORTHERN INDIANA
1000 AM EDT THU APR 26 2018

NOTE: "FAIR" INDICATES FEW OR NO CLOUDS BELOW 12,000 FEET WITH NO
SIGNIFICANT WEATHER AND/OR OBSTRUCTIONS TO VISIBILITY.

* THESE STATIONS ARE NOT UNDER NWS QUALITY CONTROL. THEY ALSO MAY NOT
  REPORT WEATHER SUCH AS PRECIPITATION OR FOG.

INZ001>027-261500-
NORTHERN INDIANA

CITY           SKY/WX    TMP DP  RH WIND       PRES   REMARKS
GARY*          SUNNY     46  30  53 NE9       29.98S
VALPARAISO     FAIR      50  39  66 NE3       29.97R
MICHIGAN CITY* FAIR      45  39  81 CALM      29.97F
LAPORTE*       FAIR      48  39  73 E3        29.97S
KNOX*          FAIR      45  36  70 CALM      29.97R
SOUTH BEND     FAIR      45  37  73 VRB3      29.97S
ELKHART*       FAIR      54  39  58 CALM      29.96S
GOSHEN         FAIR      49  41  74 S6        29.96R
MONTICELLO*    FAIR      43  34  71 NE5       29.96S
LOGANSPORT*    FAIR      43  34  70 CALM      29.96S
ROCHESTER*     FAIR      50  41  71 SE5       29.96S
WARSAW*        FAIR      46  39  76 SE7       29.96R
AUBURN*        FAIR      46  41  81 SE5       29.96S
FORT WAYNE     FAIR      48  41  76 E8        29.96S
HUNTINGTON*    FAIR      49  40  72 E6        29.95S
PERU/GRISSOM   FAIR      46  41  85 CALM      29.94R
MARION*        FAIR      45  37  73 CALM      29.95S

$$
INZ028>050-261500-
CENTRAL INDIANA

CITY           SKY/WX    TMP DP  RH WIND       PRES   REMARKS
LAFAYETTE      FAIR      44  35  70 N3        29.97R
KOKOMO*        FAIR      45  37  73 CALM      29.96R
MUNCIE*        FAIR      46  40  79 SE6       29.94R
INDIANAPOLIS   FAIR      47  33  58 CALM      29.96R

$$
MIZ043>046-050>051-056>058-064>065-071>073-077>080-261500-
SOUTHWEST LOWER MICHIGAN

CITY           SKY/WX    TMP DP  RH WIND       PRES   REMARKS
BATTLE CREEK   FAIR      49  40  71 W3        29.96S
BENTON HARBOR  FAIR      50  36  58 CALM      29.96F
COLDWATER*     CLOUDY    44  42  94 CALM      29.96S FOG
HILLSDALE*     FAIR      45  37  76 CALM      29.94S
HOLLAND        FAIR      48  35  60 SW5       29.96F
GRAND RAPIDS   PTSUNNY   50  34  54 W6        29.95F
KALAMAZOO      FAIR      50  36  58 N6        29.96F
STURGIS*       FAIR      49  41  75 CALM      29.95S
THREE RIVERS*  FAIR      49  39  69 CALM      29.96S

$$
OHZ001>008-015>018-024>025-261500-
NORTHWEST OHIO

CITY           SKY/WX    TMP DP  RH WIND       PRES   REMARKS
WAUSEON*       CLOUDY    43  43 100 CALM      29.96S
DEFIANCE       FAIR      49  40  71 VRB6      29.96S
FINDLAY        FAIR      47  32  56 E9        29.95R
TOLEDO EXPRESS FAIR      46  42  86 NW5       29.96S
TOLEDO METCALF FAIR      48  39  71 E3        29.97S
LIMA           CLOUDY    49  41  74 E9        29.94S

$$
AND FOR LAKE MICHIGAN COASTAL AND OPEN LAKE BUOY OBSERVATIONS

STATION/POSITION TEMP    WIND        PRES    VSBY  WAVE
                 AIR SEA DIR/SP/G                  HT/PER
                 (F)     (DEG/KT/KT) (MB)    (MI)  (FT/S)
CALUMET HARBOR    44      20/  5/  8 1014.5R
MICHIGAN CITY     40      20/  6/  6   N/A
BURNS HARBOR      40      20/  6/  8 1015.6S
SAINT JOSEPH      43      10/  6/  7 1014.9
4 MI NW BRIDGMAN  42 43  210/  4/  6 1015.7          1/ 4

$$
&&




USA.gov is the U.S. government's official web portal to all federal, state and local government web resources and services.